User: anonymous   Login
Location: �chenoz-la-M�line
(47.6009°N, 6.1354°E)
Time: 08:42:18
(UTC+00:00)
Language:

Cosmos 1570 Rocket - Orbit

View from above orbital plane
View from above orbital plane
View from above satellite
View from above satellite

Ground track
Ground track

The orbit data is extracted from the following two-line orbital elements,

1 15032U 84056B   21102.56777596 -.00000017  00000-0  30769-5 0  9991
2 15032  74.0722  45.0855 0018157 217.8432 142.1445 14.34826013926775
Epoch (UTC): 12 April 2021 13:37:35
Eccentricity: 0.0018157
inclination: 74.0722°
perigee height: 762 km
apogee height: 788 km
right ascension of ascending node: 45.0855°
argument of perigee: 217.8432°
revolutions per day: 14.34826013
mean anomaly at epoch: 142.1445°
orbit number at epoch: 92677

The dashed part of the orbit path shows where the satellite is in the earth's shadow,  

DLR